Location: Pcim
(49.7500°N, 19.9670°E)
Time: 02:51:28
(UTC+02:00)

AO-91 - Pass Details

Date: 03 May 2024
Orbit: 441 x 736 km, 97.6° (Epoch: 23 May)

Event Time Altitude Azimuth Distance (km) Brightness Sun altitude
Rises 23:46:30 0° 356° (N) 2,485 ? -23.3°
Reaches altitude 10° 23:49:15 10° 330° (NNW) 1,639 ? -23.4°
Maximum altitude 23:51:08 14° 297° (WNW) 1,427 ? -23.4°
Drops below altitude 10° 23:53:05 10° 265° (W) 1,695 ? -23.5°
Enters shadow 23:53:12 10° 263° (W) 1,724 ? -23.5°
